Weather History for Whiteman AFB, MO

Change the Weather History Date:

Friday, May 3, 2013

  Actual Average Record
Temperature  
Mean Temperature 34 °F -  
Max Temperature 34 °F 70 °F 84 °F (2001)
Min Temperature 32 °F 51 °F 32 °F (2013)
Degree Days  
Heating Degree Days 32    
Moisture  
Dew Point 33 °F    
Average Humidity 100    
Maximum Humidity 100    
Minimum Humidity 100    
Precipitation  
Precipitation 0.22 in - - ()
Snow  
Snow 0.00 in - - ()
Snow Depth 4.00 in    
Sea Level Pressure  
Sea Level Pressure 30.07 in    
Wind  
Wind Speed 14 mph (NNW)    
Max Wind Speed 21 mph    
Max Gust Speed 28 mph    
Visibility 6 miles    
Events Rain , Snow    
Averages and records for this station are not official NWS values.
T = Trace of Precipitation, MM = Missing Value Source: NWS Daily Summary

Daily Weather History Graph

Daily Weather History Graph

Search for Another Location

Airport:

Trip Planner

Search our weather history database for the weather conditions in past years. The results will help you decide how hot, cold, wet, or windy it might be!

Date:

Astronomy

May. 03, 2013 Rise Set
Actual Time 6:14 AM CDT 8:08 PM CDT
Civil Twilight 5:45 AM CDT 8:37 PM CDT
Nautical Twilight 5:10 AM CDT 9:12 PM CDT
Astronomical Twilight 4:32 AM CDT 9:50 PM CDT
Moon 2:34 AM CDT (5/3) 2:07 PM CDT (5/3)
Length of Visible Light 14h 52m
Length of Day
13h 54m
Last Quarter, 37% of the Moon is Illuminated
May 3
Last Quarter
May 9
New
May 17
First Quarter
May 24
Full
May 31
Last Quarter

Hourly Weather History & Observations

Time (CDT) Temp. Windchill Dew Point Humidity Pressure Visibility Wind Dir Wind Speed Gust Speed Precip Events Conditions
12:28 AM 32.0 °F 21.2 °F 32.0 °F 100% 30.23 in 5.0 mi NNW 16.1 mph - N/A Snow Light Snow
12:48 AM 32.0 °F 23.0 °F 32.0 °F 100% 30.23 in 2.5 mi NNW 11.5 mph - N/A Snow Light Snow
12:58 AM 32.5 °F 22.3 °F 32.5 °F 100% 30.27 in 2.0 mi NNW 15.0 mph - 0.00 in Snow Light Snow
1:08 AM 32.0 °F 23.0 °F 32.0 °F 100% 30.24 in 2.5 mi NNW 11.5 mph - N/A Snow Light Snow
1:13 AM 32.0 °F 21.6 °F 32.0 °F 100% 30.23 in 3.0 mi NNW 15.0 mph - N/A Snow Light Snow
1:18 AM 32.0 °F 22.1 °F 32.0 °F 100% 30.22 in 4.0 mi NNW 13.8 mph - N/A Snow Light Snow
1:23 AM 32.0 °F 22.1 °F 32.0 °F 100% 30.22 in 3.0 mi NNW 13.8 mph 20.7 mph N/A Snow Light Snow
1:33 AM 32.0 °F 22.5 °F 32.0 °F 100% 30.22 in 2.5 mi NNW 12.7 mph - N/A Snow Light Snow
1:48 AM 32.0 °F 20.1 °F 32.0 °F 100% 30.20 in 1.5 mi NNW 19.6 mph 24.2 mph N/A Snow Light Snow
1:58 AM 32.4 °F 20.3 °F 32.4 °F 100% 30.21 in 1.2 mi NNW 20.7 mph - 0.00 in Snow Light Snow
2:03 AM 32.0 °F 19.8 °F 32.0 °F 100% 30.18 in 1.0 mi NNW 20.7 mph 26.5 mph N/A Snow Light Snow
2:18 AM 32.0 °F 20.5 °F 32.0 °F 100% 30.19 in 1.0 mi NNW 18.4 mph - N/A Snow Light Snow
2:23 AM 32.0 °F 20.5 °F 32.0 °F 100% 30.18 in 1.0 mi NNW 18.4 mph 24.2 mph N/A Snow Light Snow
2:28 AM 32.0 °F 20.8 °F 32.0 °F 100% 30.18 in 1.0 mi NNW 17.3 mph 24.2 mph N/A Snow Light Snow
2:33 AM 32.0 °F 21.2 °F 32.0 °F 100% 30.18 in 1.5 mi NNW 16.1 mph 23.0 mph N/A Snow Light Snow
2:55 AM 32.5 °F 21.5 °F 32.5 °F 100% 30.18 in 1.5 mi NNW 17.3 mph 27.6 mph 0.05 in Snow Light Snow
3:45 AM 32.0 °F 21.2 °F 32.0 °F 100% 30.15 in 3.0 mi North 16.1 mph - N/A Snow Light Snow
3:55 AM 32.5 °F 22.3 °F 32.5 °F 100% 30.17 in 4.0 mi North 15.0 mph 24.2 mph 0.10 in Snow Light Snow
4:40 AM 32.0 °F 21.6 °F 32.0 °F 100% 30.18 in 6.0 mi NNW 15.0 mph - N/A Snow Light Snow
4:55 AM 32.7 °F 23.4 °F 32.7 °F 100% 30.18 in 6.0 mi NNW 12.7 mph - 0.00 in Snow Light Snow
5:43 AM 32.0 °F 22.1 °F 32.0 °F 100% 30.15 in 2.0 mi NNW 13.8 mph 21.9 mph N/A Snow Light Snow
5:55 AM 32.5 °F 22.7 °F 32.5 °F 100% 30.15 in 3.0 mi NNW 13.8 mph - 0.00 in Snow Light Snow
6:55 AM 32.5 °F 22.3 °F 32.5 °F 100% 30.15 in 2.0 mi NNW 15.0 mph - 0.04 in Snow Light Snow
7:55 AM 32.5 °F 21.9 °F 32.5 °F 100% 30.12 in 2.5 mi NNW 16.1 mph - 0.03 in Snow Light Snow
8:30 AM 32.0 °F 21.6 °F 32.0 °F 100% 30.12 in 5.0 mi NNW 15.0 mph - N/A Snow Light Snow
8:55 AM 33.1 °F 22.2 °F 33.1 °F 100% 30.11 in 6.0 mi NNW 17.3 mph - 0.00 in Snow Light Snow
9:55 AM 33.4 °F 23.5 °F 33.4 °F 100% 30.09 in 5.0 mi North 15.0 mph - 0.00 in Snow Light Snow
10:55 AM 33.6 °F 24.1 °F 33.6 °F 100% 30.12 in 3.0 mi NNW 13.8 mph - 0.00 in Snow Light Snow
11:56 AM 33.8 °F 23.9 °F 33.8 °F 100% 30.08 in 7.0 mi NNW 15.0 mph 23.0 mph 0.00 in Snow Light Snow
12:58 PM 34.0 °F 23.8 °F 34.0 °F 100% 30.05 in 4.0 mi SW 16.1 mph 24.2 mph 0.00 in Snow Light Snow
1:55 PM 34.0 °F 23.8 °F 34.0 °F 100% 30.05 in 5.0 mi NNW 16.1 mph 20.7 mph 0.00 in Snow Light Snow
2:55 PM 34.0 °F 26.6 °F 34.0 °F 100% 30.05 in 3.0 mi NW 9.2 mph - 0.00 in Snow Light Snow
3:06 PM 33.8 °F 25.3 °F 33.8 °F 100% 30.04 in 2.0 mi NNW 11.5 mph 17.3 mph N/A Snow Light Snow
3:50 PM 33.8 °F 25.8 °F 33.8 °F 100% 30.00 in 6.0 mi NNW 10.4 mph - N/A Snow Light Snow
3:58 PM 34.0 °F 24.6 °F 34.0 °F 100% 30.03 in 10.0 mi NNW 13.8 mph - 0.00 in Rain , Snow Light Rain
4:11 PM 33.8 °F 25.8 °F 33.8 °F 100% 29.99 in 10.0 mi North 10.4 mph - N/A Snow Light Snow
4:27 PM 33.8 °F 24.8 °F 33.8 °F 100% 29.99 in 10.0 mi North 12.7 mph - N/A Rain , Snow Light Rain
4:36 PM 33.8 °F 23.2 °F 33.8 °F 100% 29.99 in 10.0 mi NNW 17.3 mph - N/A Rain Light Rain
4:48 PM 33.8 °F 24.3 °F 33.8 °F 100% 29.98 in 10.0 mi NNW 13.8 mph - N/A   Overcast
4:58 PM 34.7 °F 25.5 °F 34.7 °F 100% 30.01 in 10.0 mi NNW 13.8 mph - 0.00 in   Overcast
5:38 PM 35.6 °F 27.1 °F 35.6 °F 100% 29.98 in 10.0 mi NNW 12.7 mph - N/A   Light Drizzle
5:58 PM 34.7 °F 24.7 °F 34.7 °F 100% 30.00 in 4.0 mi NNW 16.1 mph - 0.00 in Rain , Snow Light Rain
6:22 PM 33.8 °F 23.5 °F 33.8 °F 100% 29.96 in 10.0 mi NNW 16.1 mph 23.0 mph N/A   Overcast
6:58 PM 34.5 °F 24.8 °F 34.5 °F 100% 29.98 in 10.0 mi NNW 15.0 mph - 0.00 in   Overcast
7:01 PM 33.8 °F 23.5 °F 33.8 °F 100% 29.95 in 10.0 mi NNW 16.1 mph - N/A   Light Drizzle
7:36 PM 33.8 °F 24.8 °F 33.8 °F 100% 29.95 in 6.0 mi NNW 12.7 mph - N/A Rain Light Rain
7:58 PM 34.2 °F 25.2 °F 34.2 °F 100% 29.97 in 6.0 mi NNW 12.7 mph - 0.00 in Rain Light Rain
8:28 PM 33.8 °F 24.8 °F 33.8 °F 100% 29.94 in 9.0 mi NNW 12.7 mph - N/A Rain Light Rain
8:43 PM 33.8 °F 24.8 °F 33.8 °F 100% 29.94 in 10.0 mi North 12.7 mph - N/A Rain Light Rain
8:58 PM 33.4 °F 25.9 °F 33.4 °F 100% 29.97 in 10.0 mi North 9.2 mph - 0.00 in Rain Light Rain
9:08 PM 32.0 °F 24.2 °F 32.0 °F 100% 29.94 in 10.0 mi North 9.2 mph - N/A Rain Light Rain
9:38 PM 32.0 °F 23.0 °F 32.0 °F 100% 29.93 in 10.0 mi NNW 11.5 mph - N/A Rain Light Rain
9:43 PM 32.0 °F 22.5 °F 32.0 °F 100% 29.93 in 9.0 mi NNW 12.7 mph - N/A Rain Light Rain
9:53 PM 32.0 °F 22.5 °F 32.0 °F 100% 29.92 in 9.0 mi NNW 12.7 mph - N/A Rain Light Rain
9:58 PM 33.6 °F 24.1 °F 33.6 °F 100% 29.96 in 9.0 mi NNW 13.8 mph - 0.00 in Rain Light Rain
10:33 PM 32.0 °F 24.2 °F 32.0 °F 100% 29.91 in 8.0 mi NNW 9.2 mph - N/A Rain Light Rain
10:48 PM 32.0 °F 25.6 °F 32.0 °F 100% 29.91 in 8.0 mi NW 6.9 mph - N/A Rain Light Rain
10:58 PM 33.6 °F 29.4 °F 33.6 °F 100% 29.94 in 8.0 mi NW 4.6 mph - 0.00 in Rain Light Rain
11:38 PM 32.0 °F 25.6 °F 32.0 °F 100% 29.89 in 9.0 mi NNW 6.9 mph - N/A Rain Light Rain
11:58 PM 33.3 °F 27.9 °F 33.3 °F 100% 29.91 in 10.0 mi NNW 5.8 mph - 0.00 in   Light Drizzle
11:59 PM 32.0 °F 27.5 °F 32.0 °F 100% 29.88 in 10.0 mi NW 4.6 mph - N/A   Overcast